Gogerbank, United Kingdom

8:29 PM GMT on January 18, 2017 (GMT +0000)
Edinburgh Airport

Weather History for EGPH - October, 2011

Change the Weather History Date:

Wednesday, October 5, 2011

  Actual Average Record
Temperature  
Mean Temperature 56 °F -  
Max Temperature 64 °F 55 °F 66 °F (2001)
Min Temperature 48 °F 42 °F 30 °F (1999)
Degree Days  
Heating Degree Days 9    
Growing Degree Days 6 (Base 50)    
Moisture  
Dew Point 53 °F    
Average Humidity 85    
Maximum Humidity 94    
Minimum Humidity 77    
Precipitation  
Precipitation 0.00 in 0.08 in - ()
Sea Level Pressure  
Sea Level Pressure 29.54 in    
Wind  
Wind Speed 17 mph ()    
Max Wind Speed 36 mph    
Max Gust Speed 48 mph    
Visibility 6.0 miles    
Events Rain    
Averages and records for this station are not official NWS values.
T = Trace of Precipitation, MM = Missing Value Source: Averaged Metar Reports

Daily Weather History Graph

Daily Weather History Graph

Search for Another Location

Airport or City:

Trip Planner

Search our weather history database for the weather conditions in past years. The results will help you decide how hot, cold, wet, or windy it might be!

Date:

Astronomy

Oct. 05, 2011 Rise Set
Actual Time 7:23 AM BST 6:39 PM BST
Civil Twilight 6:46 AM BST 7:16 PM BST
Nautical Twilight 6:03 AM BST 7:59 PM BST
Astronomical Twilight 5:18 AM BST 8:43 PM BST
Moon 4:10 PM BST (10/5) No Moon Set
Length of Visible Light 12h 29m
Length of Day
11h 15m
Waxing Gibbous, 64% of the Moon is Illuminated
Oct 5
Waxing Gibbous
Oct 12
Full
Oct 20
Last Quarter
Oct 26
New
Nov 2
First Quarter

Hourly Weather History & Observations

Time (BST) Temp. Dew Point Humidity Pressure Visibility Wind Dir Wind Speed Gust Speed Precip Events Conditions
12:20 AM 53.6 °F 46.4 °F 77% 29.77 in 6.2 mi SW 13.8 mph - N/A   Mostly Cloudy
12:50 AM 53.6 °F 46.4 °F 77% 29.77 in 6.2 mi SW 11.5 mph - N/A   Mostly Cloudy
1:20 AM 53.6 °F 48.2 °F 82% 29.77 in 6.2 mi SW 15.0 mph - N/A   Mostly Cloudy
1:50 AM 53.6 °F 50.0 °F 88% 29.74 in 6.2 mi SW 13.8 mph - N/A   Mostly Cloudy
2:20 AM 53.6 °F 50.0 °F 88% 29.71 in 6.2 mi WSW 9.2 mph - N/A   Mostly Cloudy
2:50 AM 53.6 °F 51.8 °F 94% 29.71 in 6.2 mi SW 12.7 mph - N/A   Overcast
3:20 AM 55.4 °F 51.8 °F 88% 29.68 in 6.2 mi SW 10.4 mph - N/A   Overcast
3:50 AM 55.4 °F 53.6 °F 94% 29.68 in 3.1 mi SW 11.5 mph - N/A   Drizzle
4:20 AM 57.2 °F 53.6 °F 88% 29.65 in 6.2 mi SW 13.8 mph - N/A   Mostly Cloudy
4:50 AM 57.2 °F 55.4 °F 94% 29.62 in 6.2 mi SW 18.4 mph - N/A   Mostly Cloudy
5:20 AM 59.0 °F 55.4 °F 88% 29.62 in 6.2 mi SW 19.6 mph - N/A   Mostly Cloudy
5:50 AM 59.0 °F 53.6 °F 82% 29.59 in 6.2 mi SW 23.0 mph - N/A   Mostly Cloudy
6:20 AM 59.0 °F 55.4 °F 88% 29.59 in 6.2 mi SW 25.3 mph - N/A Rain Light Rain
6:50 AM 59.0 °F 55.4 °F 88% 29.56 in 6.2 mi SW 24.2 mph - N/A Rain Light Rain
7:20 AM 59.0 °F 55.4 °F 88% 29.56 in 6.2 mi SW 24.2 mph - N/A   Scattered Clouds
7:50 AM 59.0 °F 55.4 °F 88% 29.56 in 6.2 mi SW 25.3 mph - N/A   Scattered Clouds
8:20 AM 60.8 °F 55.4 °F 82% 29.56 in 6.2 mi SW 26.5 mph - N/A   Mostly Cloudy
8:50 AM 60.8 °F 55.4 °F 82% 29.56 in 6.2 mi SW 24.2 mph - N/A   Mostly Cloudy
9:20 AM 60.8 °F 55.4 °F 82% 29.53 in 6.2 mi SW 26.5 mph 41.4 mph N/A   Mostly Cloudy
9:50 AM 60.8 °F 55.4 °F 82% 29.53 in 6.2 mi SW 24.2 mph 38.0 mph N/A   Mostly Cloudy
10:20 AM 62.6 °F 57.2 °F 82% 29.50 in 6.2 mi SW 28.8 mph 40.3 mph N/A   Mostly Cloudy
10:50 AM 62.6 °F 57.2 °F 82% 29.50 in 6.2 mi SW 32.2 mph - N/A   Mostly Cloudy
11:20 AM 62.6 °F 57.2 °F 82% 29.50 in 6.2 mi SW 35.7 mph 48.3 mph N/A   Scattered Clouds
11:50 AM 64.4 °F 57.2 °F 77% 29.50 in 6.2 mi SW 32.2 mph 43.7 mph N/A   Mostly Cloudy
12:20 PM 64.4 °F 57.2 °F 77% 29.50 in 6.2 mi SW 34.5 mph - N/A   Mostly Cloudy
12:50 PM 64.4 °F 57.2 °F 77% 29.47 in 6.2 mi WSW 33.4 mph 44.9 mph N/A   Mostly Cloudy
1:20 PM 64.4 °F 57.2 °F 77% 29.47 in 6.2 mi SW 31.1 mph 44.9 mph N/A   Mostly Cloudy
1:50 PM 62.6 °F 57.2 °F 82% 29.47 in 6.2 mi SW 27.6 mph 39.1 mph N/A   Scattered Clouds
2:20 PM 62.6 °F 57.2 °F 82% 29.47 in 6.2 mi WSW 28.8 mph 42.6 mph N/A   Mostly Cloudy
2:50 PM 62.6 °F 57.2 °F 82% 29.47 in 6.2 mi WSW 23.0 mph - N/A   Drizzle
3:20 PM 60.8 °F 57.2 °F 88% 29.47 in 4.3 mi WSW 20.7 mph 32.2 mph N/A Rain Light Rain
3:50 PM 59.0 °F 57.2 °F 94% 29.44 in 4.3 mi WSW 19.6 mph - N/A Rain Light Rain
4:20 PM 59.0 °F 57.2 °F 94% 29.44 in 6.2 mi West 15.0 mph 26.5 mph N/A   Mostly Cloudy
4:50 PM 59.0 °F 55.4 °F 88% 29.44 in 6.2 mi West 17.3 mph - N/A Rain Light Rain Showers
5:20 PM 59.0 °F 55.4 °F 88% 29.44 in 6.2 mi WSW 16.1 mph 27.6 mph N/A   Scattered Clouds
5:50 PM 59.0 °F 53.6 °F 82% 29.44 in 6.2 mi West 19.6 mph - N/A   Partly Cloudy
6:20 PM 57.2 °F 53.6 °F 88% 29.44 in 6.2 mi WSW 20.7 mph 33.4 mph N/A Rain Light Rain Showers
6:50 PM 53.6 °F 50.0 °F 88% 29.44 in 6.2 mi WSW 18.4 mph - N/A   Scattered Clouds
7:20 PM 53.6 °F 50.0 °F 88% 29.44 in 6.2 mi WSW 18.4 mph - N/A   Scattered Clouds
7:50 PM 53.6 °F 50.0 °F 88% 29.47 in 6.2 mi WSW 16.1 mph - N/A Rain Light Rain
8:20 PM 51.8 °F 48.2 °F 88% 29.47 in 6.2 mi WSW 13.8 mph - N/A   Mostly Cloudy
8:50 PM 51.8 °F 48.2 °F 88% 29.47 in 6.2 mi WSW 17.3 mph - N/A   Mostly Cloudy
9:20 PM 50.0 °F 46.4 °F 87% 29.47 in 6.2 mi WSW 19.6 mph - N/A   Unknown
9:50 PM 50.0 °F 46.4 °F 87% 29.47 in - WSW 16.1 mph - N/A   Clear
10:20 PM 50.0 °F 44.6 °F 82% 29.47 in - WSW 16.1 mph - N/A   Clear
10:50 PM 48.2 °F 44.6 °F 87% 29.47 in - WSW 13.8 mph - N/A   Clear
11:20 PM 48.2 °F 42.8 °F 82% 29.47 in - WSW 13.8 mph - N/A   Clear
11:50 PM 48.2 °F 42.8 °F 82% 29.47 in - WSW 13.8 mph - N/A   Clear